Flag for Germany Weather past 2 weeks in Naumburg (Saale), Saxony-Anhalt, Germany

Now
74 °F

Partly sunny.


Feels Like: 76 °F
Forecast: 65 / 80 °F
Wind: 3 mph from South

Location: Gera-Leumnitz

Current Time: Jul 5, 2015 at 7:23:37 AM

Latest Report: Jul 5, 2015 at 7:00 AM


Visibility: 22 mi

Pressure: 30.05 "Hg

Humidity: 71%

Dew point: 64 °F

Location of Naumburg (Saale)Location

Historic Weather in Naumburg (Saale) — Graph

°F

Naumburg (Saale) temperature yesterday

Maximum temperature yesterday: 94 °F (at 5:00 PM)
Minimum temperature yesterday: 68 °F (at 5:00 AM)
Average temperature yesterday: 82 °F

Past Weeks' High & Low Weather Summary

 TemperatureHumidityPressure
High94 °F (Jul 4, 5:00 PM)99% (Jun 23, 3:00 AM)30.24 "Hg (Jun 23, 3:00 AM)
Low46 °F (Jun 25, 4:00 AM)28% (Jul 4, 4:00 PM)29.64 "Hg (Jun 23, 4:00 AM)
Average64 °F70%30.09 "Hg
* Reported Jun 20 5:00 AM — Jul 5 5:00 AM, Naumburg (Saale), Weather by CustomWeather, © 2015

Note: Actual official high and low records may vary slightly from our data, if they occured in-between our weather recording intervals... More about our weather records

Advertising

Naumburg (Saale) weather history for previous 24 hours

 ConditionsComfort  
Time TempWeatherWind HumidityBarometerVisibility
5:00 AM
Sun, Jul 5
70 °FOvercast.3 mph74%30.07 "Hg12 mi
4:00 AM72 °FOvercast.5 mph72%30.06 "Hg16 mi
3:00 AM74 °FLight rain. Overcast.6 mph65%30.05 "Hg15 mi
2:00 AM77 °FOvercast.5 mph55%30.06 "Hg19 mi
1:00 AM79 °FWarm.5 mph52%30.06 "Hg16 mi
12:00 AM76 °FOvercast.5 mph63%30.05 "Hg13 mi
11:00 PM
Sat, Jul 4
80 °FOvercast.5 mph53%30.03 "Hg15 mi
10:00 PM79 °FWarm.3 mph64%30.04 "Hg13 mi
9:00 PM81 °FWarm.5 mph63%30.03 "Hg15 mi
8:00 PM88 °FScattered clouds.2 mph57%30.02 "Hg16 mi
7:00 PM92 °FPartly sunny.2 mph42%30.01 "Hg19 mi
6:00 PM93 °FScattered clouds.3 mph35%30.03 "Hg16 mi
5:00 PM94 °FScattered clouds.3 mph30%30.04 "Hg17 mi
4:00 PM94 °FPassing clouds.3 mph28%30.06 "Hg17 mi
3:00 PM94 °FPassing clouds.3 mph31%30.07 "Hg17 mi
2:00 PM93 °FPassing clouds.3 mph34%30.08 "Hg17 mi
1:00 PM92 °FPassing clouds.3 mph38%30.10 "Hg17 mi
12:00 PM89 °FPassing clouds.3 mph41%30.11 "Hg17 mi
11:00 AM86 °FPassing clouds.2 mph46%30.13 "Hg16 mi
10:00 AM83 °FPassing clouds.3 mph53%30.13 "Hg16 mi
9:00 AM79 °FSunny.5 mph60%30.14 "Hg16 mi
8:00 AM74 °FSunny.5 mph64%30.16 "Hg16 mi
7:00 AM71 °FPassing clouds.5 mph71%30.17 "Hg17 mi
Weather by CustomWeather, © 2015

See weather overviewHow to use our weather pages